Theta_e
317 318 321 321 315 316 322 321 319 318 322 327 322 310 304 303 302 303 302 302 303 302 303 303 302 303 302 302 304 305 306 306 306 305 305 303 302 303 304 305 305 304 304 305 305 306 306 306 307 306 308 308 307 308 309 309 310 312 313 313 313 313 313 313 313 313 312 312 312 310 307 310 312 312 312 313 313 315 315 316 317 316 315 315 313 311 312 313
308 308 310 310 306 309 316 316 315 314 317 319 311 303 302 303 302 302 303 302 303 302 303 303 303 303 303 303 304 305 306 306 306 305 304 302 303 304 305 305 304 304 305 305 305 305 306 306 307 306 308 308 307 308 309 308 309 312 313 312 312 313 312 312 312 311 311 311 310 309 307 308 310 310 311 311 313 313 312 313 315 315 315 315 312 312 312 313
304 303 303 305 304 305 307 308 310 308 307 306 303 302 302 302 302 302 302 303 303 303 303 303 303 303 302 303 304 306 306 307 306 305 303 302 304 304 305 305 304 304 305 305 305 305 305 306 305 306 307 307 307 308 310 309 309 311 312 312 312 311 311 310 310 310 308 307 308 308 306 306 307 308 309 310 311 311 310 311 312 312 313 314 313 313 313 313
304 302 302 305 307 306 304 304 304 302 302 302 302 303 302 303 303 303 304 304 304 304 304 303 303 303 303 303 305 306 306 307 306 303 302 302 304 305 305 304 304 305 305 305 305 304 305 305 304 305 307 308 307 308 309 308 309 311 311 312 312 310 311 309 307 306 304 304 305 306 305 306 306 305 306 308 308 309 310 310 310 310 311 312 313 313 313 314
304 303 302 304 307 307 305 304 304 303 303 303 303 304 304 305 305 305 306 305 305 305 304 303 303 303 303 303 305 306 306 309 306 302 302 302 303 305 305 304 305 305 304 305 304 304 304 305 305 306 307 308 307 308 308 306 307 311 311 310 309 309 310 306 303 303 302 302 304 305 305 305 305 304 306 307 307 308 310 310 309 310 310 310 311 312 313 313
305 305 303 303 304 304 303 303 305 305 305 305 305 305 305 305 305 306 305 306 305 304 304 303 303 302 303 304 305 306 306 308 304 302 302 301 303 305 305 305 305 304 304 304 304 303 304 304 305 306 307 307 307 307 307 304 305 310 310 307 306 307 307 304 302 302 300 302 304 304 303 303 304 305 306 305 306 308 308 306 306 307 306 306 308 310 311 313
306 306 305 304 303 302 301 304 306 305 305 305 305 304 304 304 304 305 305 305 304 303 303 303 302 302 304 305 305 306 306 306 302 302 302 301 303 305 305 305 304 304 304 304 304 304 304 304 305 305 306 307 306 307 306 304 305 308 309 306 304 303 304 302 301 301 300 302 302 301 302 303 304 305 303 303 305 306 304 303 302 302 303 304 306 309 310 312
308 307 306 304 303 301 301 304 305 304 303 303 303 303 303 303 303 304 304 304 303 303 303 302 303 303 304 305 306 307 306 304 302 302 302 301 303 305 305 304 305 305 305 304 304 304 304 304 304 303 306 306 305 306 305 305 307 308 308 306 303 302 303 301 300 300 300 300 300 300 303 304 303 302 301 303 304 303 301 301 300 300 303 305 305 307 309 311
308 308 307 304 302 301 301 304 304 302 302 302 303 303 303 303 303 304 303 303 303 303 302 302 303 303 305 306 307 307 305 303 302 302 302 302 303 304 305 305 305 305 305 305 303 304 304 304 303 303 306 305 304 306 305 306 308 307 306 304 304 303 302 301 301 301 300 300 300 302 303 303 301 300 302 304 302 299 300 302 300 300 304 305 304 305 308 310
305 306 305 303 303 301 302 304 303 302 302 302 303 303 303 303 303 303 303 303 303 302 302 302 302 304 306 306 308 307 304 302 302 302 302 302 303 305 305 305 305 305 305 305 304 305 305 304 303 303 305 305 305 306 305 307 307 304 304 303 303 302 301 301 302 301 301 300 299 302 303 302 300 300 303 304 299 298 302 304 303 303 304 304 302 303 306 308
302 303 303 302 302 301 303 304 302 302 302 302 303 303 303 303 303 303 303 302 302 302 302 302 303 306 307 307 308 306 303 302 302 301 301 302 304 304 305 305 305 305 305 305 304 304 304 304 302 303 305 305 305 305 304 305 304 302 302 304 303 302 301 301 302 301 301 301 300 300 301 301 299 300 304 302 297 299 301 302 304 304 304 303 302 301 304 306
301 302 302 302 301 301 303 304 302 302 302 302 303 303 303 303 303 302 302 302 302 302 302 303 305 306 307 307 306 304 302 302 302 301 302 303 304 304 305 305 305 305 306 306 304 303 304 303 302 304 305 305 306 306 304 302 301 302 302 305 306 304 303 301 301 300 300 302 300 300 302 302 301 302 303 300 297 300 300 300 301 301 301 301 301 300 302 304
301 301 301 302 301 302 304 304 302 302 302 302 302 302 302 302 303 303 303 302 302 302 303 304 305 306 307 306 303 302 302 302 301 301 302 304 304 304 304 304 305 305 305 305 304 303 303 303 304 305 304 306 307 305 304 301 301 303 303 305 306 305 305 301 299 300 300 302 300 300 304 304 304 303 301 298 298 299 299 299 299 299 299 299 299 299 300 302
301 301 301 301 301 303 305 304 302 302 302 303 302 302 303 303 304 304 304 304 303 303 304 305 306 306 307 305 302 302 302 301 301 301 302 303 303 303 304 304 305 304 305 305 304 303 303 303 304 305 304 304 304 303 304 303 302 303 305 305 304 305 305 301 299 301 301 301 299 301 305 304 303 302 300 298 298 297 297 299 299 297 297 297 297 297 298 299
301 301 301 301 302 304 305 304 303 302 304 304 303 304 304 304 305 305 305 305 305 305 306 306 306 307 307 304 302 302 301 301 301 301 302 303 303 304 303 303 304 304 304 304 304 303 302 303 303 304 302 301 303 305 306 305 302 302 305 305 303 303 304 301 298 299 300 300 299 301 304 304 303 301 300 298 297 296 297 299 297 297 296 296 296 296 296 297
300 301 301 301 303 305 305 303 303 303 305 305 304 305 305 305 306 306 306 307 308 308 308 308 306 306 308 305 302 301 301 301 301 300 301 302 303 303 303 303 303 304 304 303 303 302 302 303 301 300 301 301 304 306 305 304 303 302 303 302 302 302 303 303 299 296 298 298 299 301 302 304 303 301 300 298 296 296 297 298 296 296 296 296 296 296 296 297
301 301 301 302 304 306 304 303 304 304 305 305 305 305 306 306 306 306 306 307 308 307 306 307 305 305 307 303 300 301 301 300 300 300 301 302 302 302 302 303 303 303 303 303 303 303 303 303 300 301 302 301 302 303 304 303 302 302 302 302 301 301 302 304 302 297 297 299 300 300 301 303 302 301 300 297 295 296 297 297 296 296 296 296 296 296 296 297
302 302 301 303 306 306 304 303 304 305 305 305 305 306 306 306 306 306 305 305 305 305 305 305 305 307 306 301 300 301 300 300 300 300 301 301 302 302 302 303 302 303 304 304 304 303 303 302 302 303 302 302 302 303 303 302 301 301 302 302 302 302 302 302 302 300 298 300 300 300 301 302 301 301 300 297 296 296 297 296 296 296 296 296 296 296 296 296
303 302 302 303 306 306 304 304 304 306 306 306 305 305 305 304 304 304 304 305 305 307 307 305 304 307 305 300 300 300 299 300 299 300 301 301 302 301 301 302 302 304 305 305 305 302 302 303 303 303 302 302 302 303 302 300 300 301 301 302 301 302 303 302 302 299 297 300 302 301 301 300 301 301 299 297 296 296 297 296 297 296 296 296 296 296 296 295
303 303 302 304 306 306 304 304 305 305 306 305 305 305 305 306 306 305 304 304 304 303 305 305 302 302 302 299 300 300 299 299 299 301 301 301 301 301 301 301 303 304 305 307 307 302 301 304 303 302 302 301 301 300 299 299 300 300 301 302 301 301 303 302 300 298 297 301 302 300 300 300 301 301 298 296 296 296 296 297 296 296 296 296 296 295 295 294
303 303 303 304 306 305 304 304 305 305 306 306 307 308 309 309 307 306 305 303 301 298 301 302 299 299 300 298 299 299 298 299 299 300 301 301 301 301 301 302 304 304 303 304 305 302 302 303 302 301 300 300 299 299 298 300 301 301 301 301 301 302 302 301 298 297 297 300 302 301 300 301 301 299 296 296 296 295 294 295 295 296 295 295 295 295 295 294
304 303 303 304 305 306 305 305 305 305 307 307 308 309 310 308 305 304 305 306 303 298 299 299 298 299 298 298 298 297 298 299 300 301 301 301 301 302 303 302 304 304 302 302 305 304 304 302 301 298 298 298 298 298 299 301 301 301 301 301 303 302 301 301 297 297 297 298 301 301 300 302 300 297 296 295 295 294 293 293 294 294 295 294 294 294 294 294
304 303 302 304 305 306 306 305 305 305 306 307 307 307 307 306 304 303 306 308 306 301 301 302 301 300 300 299 298 298 299 299 300 301 300 301 302 302 304 303 304 304 302 304 305 305 304 302 298 296 297 299 299 298 299 301 301 301 301 301 303 300 300 302 299 297 298 298 299 299 300 302 298 296 296 294 294 294 293 293 293 293 294 293 293 293 293 294
304 303 303 304 305 306 306 306 306 306 306 306 306 306 306 306 305 305 308 308 307 304 303 302 301 300 300 300 299 299 299 298 299 300 300 301 302 301 303 304 304 303 302 303 305 304 303 299 295 296 298 299 299 299 299 302 303 302 300 301 302 299 298 300 299 298 299 298 297 298 302 303 299 298 297 295 294 294 293 294 293 293 293 293 293 292 292 293
303 303 303 304 305 306 306 306 305 305 306 306 306 306 306 307 306 306 309 308 308 307 303 301 300 299 299 299 299 299 299 299 298 298 298 300 301 302 302 300 302 303 302 302 304 303 301 295 295 298 299 299 300 300 300 301 302 302 301 300 300 298 298 298 298 299 301 301 298 298 303 303 301 299 298 296 295 295 294 294 294 293 293 293 293 292 292 292
303 302 302 304 305 305 306 306 305 305 307 307 306 307 306 306 305 304 307 309 308 307 305 303 302 300 300 299 299 299 301 301 297 296 298 299 300 301 302 301 301 303 303 302 303 302 299 294 295 299 300 300 300 301 300 300 302 302 299 297 297 297 298 298 298 299 301 303 299 297 301 303 302 300 298 297 296 295 295 294 293 293 293 293 293 292 292 292
303 302 302 304 304 305 307 307 305 305 308 307 306 307 307 306 305 303 306 308 306 306 305 304 302 301 301 299 297 300 304 302 297 297 297 297 298 299 302 304 302 303 301 302 303 303 298 296 296 298 299 301 301 301 300 299 302 301 295 294 297 298 298 298 298 299 300 300 299 297 299 301 303 302 299 297 297 296 295 295 294 293 292 292 292 292 292 291
303 302 302 304 305 305 306 305 305 306 307 308 306 307 307 306 305 305 307 305 304 305 305 304 301 300 301 298 297 300 303 300 300 301 296 296 298 299 302 305 304 305 301 302 304 303 298 299 299 298 299 300 301 300 298 298 301 299 293 295 298 297 298 298 298 300 298 298 301 300 298 301 304 302 297 296 297 297 296 295 294 293 293 292 292 292 291 291
303 302 302 304 305 305 306 305 305 306 306 306 306 307 307 305 305 308 308 304 304 305 305 303 301 300 301 300 300 301 301 300 302 301 297 297 298 299 302 303 303 304 300 301 304 301 298 299 298 299 300 300 300 296 294 298 299 296 294 296 297 296 297 297 298 300 298 299 303 302 299 301 304 302 297 296 297 298 297 296 294 293 293 292 292 292 291 291
303 303 303 304 305 306 307 306 305 306 306 305 306 306 306 306 307 308 306 305 305 305 305 303 303 303 302 302 303 302 301 301 301 300 300 300 299 299 299 298 301 303 300 300 302 299 298 297 297 299 299 298 297 294 293 295 296 296 296 297 297 296 296 297 298 298 299 302 303 300 298 300 302 303 301 298 298 299 298 295 294 293 292 293 292 292 291 291
303 303 303 303 305 305 306 307 306 307 307 306 306 306 306 307 309 307 304 305 306 306 306 304 303 304 303 302 302 302 302 302 301 302 302 302 301 301 300 301 302 302 302 303 301 298 297 299 300 298 296 295 296 296 295 294 294 296 298 299 300 299 298 298 298 297 301 304 300 296 296 298 300 302 303 299 297 299 298 296 295 294 293 293 292 292 291 291
302 303 304 303 305 305 305 307 307 307 306 305 305 308 309 306 306 307 306 306 306 306 305 303 302 302 301 300 298 300 301 302 301 302 302 301 302 302 302 302 302 303 305 305 302 300 299 300 299 297 296 295 298 299 298 296 296 297 299 300 302 302 302 302 301 301 302 302 297 294 296 298 300 302 303 299 296 297 298 297 295 294 293 293 292 292 291 291
302 302 304 304 306 305 305 306 306 306 306 304 306 311 310 305 306 308 307 306 304 302 301 301 300 299 299 300 299 298 299 301 301 301 301 300 302 302 301 300 299 301 303 302 302 302 302 300 297 299 299 296 298 301 301 300 299 299 301 301 302 303 302 303 303 303 303 300 294 293 296 298 301 300 299 298 296 296 296 296 295 294 293 293 292 292 291 291
302 302 303 304 304 304 304 305 306 306 304 304 308 310 306 305 307 305 306 305 301 300 301 300 299 299 298 299 299 298 300 301 299 300 301 300 301 302 302 299 297 299 300 301 301 302 304 304 301 300 300 297 298 299 298 300 300 299 298 298 301 302 302 304 303 303 304 301 295 293 296 300 302 298 294 295 294 294 294 294 293 293 293 293 292 291 291 291
302 302 303 303 303 304 304 305 306 305 304 306 311 308 305 309 308 303 304 304 300 301 301 297 298 300 300 299 298 297 299 299 298 299 301 300 301 302 301 301 299 298 300 302 302 299 301 302 300 296 295 296 298 296 294 298 301 298 295 297 300 300 301 302 300 299 299 299 297 296 297 300 300 295 292 293 293 292 293 293 292 293 292 292 292 291 291 291
302 302 303 303 302 303 304 305 306 305 306 309 309 306 307 309 304 301 304 303 301 301 301 299 299 301 302 300 299 297 297 298 298 300 301 300 301 302 300 300 298 298 300 303 304 302 300 301 298 294 295 294 296 295 293 297 300 297 296 299 298 295 298 300 298 295 295 298 300 299 299 299 298 296 293 293 293 292 292 292 292 292 292 292 292 292 292 291
302 302 303 302 303 303 304 306 306 305 308 310 307 307 307 304 299 300 302 302 300 298 299 302 301 300 302 301 300 299 297 299 299 300 301 300 300 301 300 299 297 297 298 299 303 303 301 302 298 295 298 295 291 294 294 294 296 297 298 298 295 294 297 298 298 298 298 300 301 300 300 300 299 299 295 292 294 293 292 292 292 292 292 292 292 292 292 291
303 302 302 302 303 303 304 306 305 307 310 308 308 309 305 301 300 299 300 300 299 297 298 301 301 299 300 301 301 299 298 300 300 300 300 300 300 301 301 301 297 295 295 295 300 300 299 302 299 292 296 296 292 295 298 295 293 296 297 295 295 298 299 298 298 300 300 300 301 301 302 300 299 300 297 294 295 294 293 293 292 292 292 292 292 292 291 291
304 305 305 303 303 304 305 306 305 309 310 305 307 308 302 302 302 299 298 299 299 298 300 300 299 298 299 300 301 299 297 300 300 300 301 300 301 301 300 301 298 295 294 294 298 298 297 301 301 294 293 295 295 298 300 299 295 294 295 294 295 298 299 299 297 298 299 300 300 301 302 301 299 301 301 298 297 295 294 293 292 293 292 292 292 292 291 291
304 309 308 302 303 305 305 306 308 311 310 304 305 305 301 302 303 297 296 298 299 299 300 300 298 299 300 299 299 298 297 298 297 299 300 299 300 301 298 298 298 296 294 293 296 298 297 299 301 297 293 295 299 300 300 302 299 297 297 297 296 296 296 297 296 297 298 299 300 299 300 302 300 299 300 300 298 296 295 294 294 293 292 292 292 292 292 291
304 312 309 301 303 305 305 308 308 307 306 303 303 303 302 303 303 300 296 295 298 298 298 298 298 299 300 299 298 297 297 298 296 298 299 298 300 301 297 295 297 296 296 296 297 298 298 298 300 299 297 298 300 297 295 297 298 299 300 299 299 298 297 298 298 297 296 297 299 298 299 302 299 296 297 299 298 297 296 295 294 293 292 292 292 292 291 291
309 312 306 301 303 304 307 310 303 298 303 304 302 302 304 303 302 301 298 296 298 298 296 297 298 298 299 298 298 297 297 299 297 298 299 299 299 298 296 293 295 295 297 299 297 296 296 297 298 299 300 299 296 291 290 292 294 296 297 298 299 299 298 299 300 298 295 295 296 296 297 300 296 293 294 295 296 296 295 295 294 293 292 292 292 291 291 291
315 310 302 301 304 304 307 308 302 301 304 302 300 301 302 303 301 299 299 299 299 298 298 298 298 298 298 297 297 297 297 299 299 299 299 298 297 297 295 293 294 295 297 298 297 296 296 297 299 300 301 298 292 289 290 290 292 295 296 295 296 298 300 300 298 296 296 296 297 296 297 299 295 292 292 293 293 294 294 294 293 293 292 292 291 291 291 290
313 307 303 303 302 304 308 308 305 306 306 302 301 302 301 300 300 300 301 301 300 298 299 299 298 298 297 296 297 297 297 299 300 299 298 298 298 296 292 294 294 295 297 299 298 297 298 299 299 300 302 300 297 295 295 293 293 296 296 294 295 298 300 299 295 294 295 297 298 297 299 300 296 291 292 293 292 293 293 292 293 292 292 291 291 290 290 290
306 304 305 304 301 304 307 306 307 308 307 306 305 303 301 300 299 300 301 300 298 298 299 299 297 297 297 295 297 298 297 298 298 298 297 297 297 295 294 296 296 294 297 299 298 296 297 299 298 299 302 302 302 302 300 297 296 295 295 294 295 297 299 298 296 296 297 298 298 297 299 299 296 292 292 293 292 293 292 292 292 291 291 291 291 290 290 289
305 306 308 307 306 306 303 300 304 308 307 307 305 301 301 302 301 298 298 299 298 296 297 297 296 297 297 296 298 298 298 298 297 297 298 299 299 297 294 296 297 296 299 299 297 297 298 297 297 299 302 302 303 302 298 296 297 297 297 298 298 297 297 297 297 297 298 298 298 298 298 299 297 296 295 293 291 292 293 292 291 291 291 291 290 290 289 289
305 308 308 307 307 307 304 301 304 306 303 303 303 300 300 301 300 298 297 298 297 296 297 297 296 298 298 297 299 299 298 297 297 298 299 300 299 296 292 293 295 295 297 297 294 296 299 298 298 299 300 301 301 299 297 295 296 297 298 299 299 297 296 297 297 298 299 298 298 299 299 299 299 298 297 295 293 293 293 292 292 291 291 290 290 289 289 289
303 305 303 301 303 305 304 303 304 304 302 300 301 299 299 301 301 300 299 298 296 296 298 299 298 299 299 298 298 299 299 298 299 302 301 300 299 297 294 294 293 294 295 294 293 296 299 299 299 298 299 299 296 296 296 296 296 296 296 296 297 297 298 298 298 298 298 298 298 298 298 298 298 298 296 294 294 293 293 292 291 290 290 290 289 289 288 288
303 303 299 298 302 303 301 300 302 304 302 300 300 300 300 302 302 300 299 299 299 298 298 300 301 300 298 297 297 299 300 300 301 304 303 302 301 300 299 298 294 293 294 293 294 296 298 300 300 298 298 298 296 295 296 295 295 296 295 295 295 296 297 298 297 297 297 297 297 297 297 297 297 295 293 292 292 291 291 290 290 289 289 289 288 288 288 288
305 304 301 301 303 300 298 298 301 303 301 298 301 301 299 301 303 300 298 300 302 300 296 300 303 300 297 296 297 299 301 301 300 301 300 300 300 300 301 300 298 294 294 295 295 295 295 299 301 298 297 298 298 295 294 294 294 294 294 295 295 295 295 296 296 296 296 296 296 295 296 296 294 292 291 290 290 289 289 289 289 289 288 288 288 288 288 287
301 300 299 303 304 300 299 299 299 302 301 299 301 302 300 301 302 300 300 301 301 301 300 302 303 300 297 296 296 299 301 300 299 299 297 297 298 298 298 297 298 299 297 296 296 295 294 296 297 296 298 299 297 295 295 295 295 296 297 297 296 296 296 296 296 295 296 296 296 296 296 294 292 290 290 289 289 288 288 288 287 288 288 288 287 287 287 287
300 299 299 304 304 300 299 299 297 300 302 302 302 302 302 302 300 298 300 302 300 300 301 303 301 298 299 299 299 300 300 298 297 296 295 294 294 295 294 294 296 300 299 296 295 294 294 295 295 295 298 299 296 295 296 297 299 302 300 297 297 296 295 296 296 294 293 294 295 295 293 291 289 289 288 288 287 287 287 287 287 287 287 287 287 286 286 286
Wind_Speed
11 9 9 8 5 5 8 9 10 10 12 12 10 8 8 8 9 10 10 9 8 8 8 5 4 2 3 5 8 9 6 6 9 13 11 9 11 12 12 12 12 10 9 9 7 3 1 0 2 2 4 3 1 1 1 2 1 2 2 2 1 1 0 0 1 0 2 4 3 3 4 5 5 2 2 1 5 4 4 6 6 4 5 5 1 1 1 1
11 9 8 7 5 4 6 8 8 7 7 9 9 9 9 10 10 10 10 10 10 10 9 6 5 4 5 7 9 10 6 3 7 13 11 11 12 11 11 11 10 8 8 8 6 4 1 0 2 1 3 2 1 0 1 1 2 2 1 2 1 1 1 1 1 1 2 5 6 4 2 3 5 5 4 5 5 3 8 8 5 5 6 5 3 4 3 2
11 9 9 7 7 6 5 4 4 4 5 8 10 10 10 10 10 10 9 9 10 9 8 7 5 5 7 8 11 10 5 1 3 7 10 12 11 9 11 10 8 7 7 6 5 4 2 1 1 1 2 1 1 1 2 1 2 1 1 4 0 1 0 1 1 2 2 5 7 4 2 3 4 4 4 6 9 9 11 9 4 6 3 2 2 2 2 3
11 9 9 8 9 8 6 3 2 5 8 9 9 9 9 8 8 8 8 8 7 7 7 7 7 7 9 9 11 9 4 2 2 5 10 12 10 9 10 9 8 7 6 5 5 3 1 1 1 0 2 2 2 1 2 2 2 2 1 2 3 1 1 2 0 1 3 3 5 5 3 4 3 2 4 5 9 11 8 4 4 7 6 2 1 1 1 3
11 9 9 9 8 8 6 1 5 6 6 7 8 8 7 6 7 7 7 7 6 6 7 8 8 9 9 10 10 8 3 3 2 6 11 13 10 8 8 8 8 5 5 5 4 3 2 1 1 1 1 2 2 2 2 2 2 2 1 2 3 1 1 3 2 2 3 2 3 4 4 5 4 4 5 5 9 9 4 5 3 5 5 4 3 2 1 3
12 8 7 7 5 3 2 4 5 5 6 7 7 7 7 7 7 7 7 7 6 6 8 8 9 10 10 10 9 6 3 1 3 6 12 14 8 7 8 7 6 4 4 4 1 1 1 1 2 2 2 2 2 1 2 2 2 2 1 1 1 1 2 3 2 1 1 3 3 4 4 4 6 7 2 4 11 10 5 5 4 5 4 5 3 3 4 4
10 7 6 6 3 1 2 3 4 4 5 6 6 6 7 7 7 7 7 7 6 7 9 9 10 10 10 9 7 3 0 2 3 7 12 13 7 5 6 6 5 4 3 2 0 1 1 1 2 2 2 2 1 2 2 1 1 3 0 2 1 1 1 3 3 1 2 3 3 3 4 4 7 7 3 6 13 9 7 6 5 5 5 4 3 4 5 5
7 6 5 3 1 3 3 2 3 3 4 5 5 6 7 7 7 7 7 7 8 9 9 10 11 11 11 9 5 3 2 2 3 8 12 12 6 3 4 4 4 4 5 5 2 2 1 0 2 2 1 2 1 2 1 1 2 1 0 2 2 1 1 3 2 1 2 2 1 4 6 5 5 5 5 12 10 5 7 6 4 4 3 2 3 3 4 4
7 5 3 3 4 4 3 2 2 3 3 4 4 5 6 6 6 7 7 9 10 11 11 11 12 12 11 6 2 2 2 2 4 9 12 11 5 2 3 3 3 4 6 8 4 1 2 1 2 3 2 3 2 2 0 3 1 1 1 2 2 1 2 4 1 2 4 1 2 5 7 6 2 2 6 8 4 6 6 3 2 3 2 1 2 3 3 4
4 2 3 5 5 4 3 1 2 2 2 3 3 4 4 5 6 7 9 11 11 11 12 11 12 11 8 4 2 2 2 2 5 9 12 11 3 1 2 3 4 4 4 6 5 3 1 2 3 1 3 4 2 1 1 2 1 2 2 2 2 2 1 3 0 3 5 1 3 7 9 8 1 1 4 2 4 6 7 4 2 2 2 1 1 3 4 4
5 7 9 7 5 4 2 2 2 2 2 2 3 3 5 6 8 10 11 11 11 12 11 11 10 8 5 3 2 1 2 2 5 9 11 9 0 2 2 3 4 3 3 4 4 4 3 4 5 2 1 2 3 2 1 0 1 2 1 2 2 1 1 3 2 4 6 1 3 8 9 6 1 3 2 3 3 4 7 9 5 4 3 1 1 2 3 3
5 7 8 6 5 4 2 3 3 4 4 4 5 6 8 9 10 11 11 11 11 11 10 10 9 6 5 3 1 3 2 2 6 8 9 4 4 3 3 3 3 3 2 2 3 3 4 6 6 2 2 2 3 2 2 1 0 1 0 2 1 2 2 5 4 4 5 1 6 7 6 2 3 4 1 3 5 6 8 10 7 6 5 3 1 2 2 3
3 5 6 6 5 3 3 4 5 6 7 7 8 9 10 11 11 10 10 10 10 10 10 10 8 5 3 2 3 3 2 2 6 7 5 2 5 3 3 3 2 3 3 4 4 4 6 6 4 4 3 0 2 1 3 2 0 1 1 2 2 3 2 4 4 4 4 0 7 8 3 2 3 2 3 4 6 10 10 8 7 6 5 4 2 2 2 3
2 3 5 6 4 4 5 5 6 8 8 9 10 11 12 12 11 11 10 10 9 9 9 8 4 2 2 1 3 2 1 1 7 8 6 4 3 2 2 1 1 2 4 7 7 7 8 6 6 7 3 3 2 2 3 2 1 1 1 0 2 2 1 4 4 6 2 2 6 7 2 3 3 3 4 3 6 9 9 8 8 7 6 5 3 3 2 2
3 3 5 5 5 6 5 5 7 9 8 10 11 13 13 12 10 9 9 9 8 7 6 4 2 3 3 2 3 1 1 1 8 11 8 6 2 1 0 2 4 6 7 8 10 9 7 5 5 4 2 1 2 2 1 1 1 1 1 1 1 1 1 3 3 5 4 2 6 5 3 4 4 5 4 2 7 7 7 7 8 8 7 6 4 4 3 3
3 3 4 5 5 6 6 7 10 10 10 11 13 14 12 9 8 7 6 6 5 5 3 2 2 2 2 2 2 2 2 3 7 11 8 6 5 2 3 6 6 7 8 8 8 8 6 6 3 1 1 1 2 1 1 2 2 1 2 0 1 2 2 1 3 3 4 4 5 2 3 4 3 4 5 6 9 7 5 7 8 8 7 7 5 5 5 5
4 3 4 5 7 7 8 11 12 11 11 12 13 12 9 7 7 6 6 6 6 5 3 2 3 2 1 2 2 1 3 4 7 9 6 4 5 4 4 5 4 5 6 6 4 3 6 4 1 0 1 1 1 1 2 1 1 1 1 0 0 2 3 2 2 1 3 3 3 2 4 6 6 9 9 9 9 6 6 7 8 8 7 7 6 6 6 7
5 5 5 6 8 8 10 13 11 9 11 11 11 10 9 8 7 5 5 6 6 4 3 4 3 2 1 2 0 2 5 6 6 7 6 3 4 5 4 3 3 3 3 2 3 2 3 2 1 1 2 1 1 2 2 2 1 0 0 1 1 2 3 3 1 2 5 4 4 4 4 7 9 9 8 9 8 7 7 7 6 7 7 7 7 7 8 9
5 5 5 7 8 8 11 12 9 8 11 11 12 12 10 8 6 4 4 4 3 1 1 2 1 2 0 1 3 6 5 4 4 6 7 4 2 4 6 5 3 2 1 2 2 3 2 0 2 1 1 1 2 1 2 2 1 1 0 1 2 3 3 3 1 3 6 6 5 3 3 8 11 8 7 7 6 6 7 6 6 6 7 7 7 8 8 9
4 4 5 8 8 9 11 11 9 11 12 11 11 9 5 4 2 2 5 5 2 0 1 1 0 1 1 0 4 6 2 2 2 6 9 7 2 1 3 4 2 1 1 1 1 2 2 1 1 0 2 3 2 2 3 3 2 3 2 1 2 4 4 2 1 2 4 6 3 2 5 8 9 5 5 5 4 7 7 7 7 7 7 7 8 9 9 9
4 4 5 8 9 9 10 11 12 13 10 7 5 3 2 2 1 1 2 2 1 1 2 1 1 1 1 1 5 6 0 2 1 5 10 8 2 2 1 1 3 2 2 1 2 0 2 1 1 2 3 4 4 2 2 3 2 2 2 1 2 3 4 0 2 1 4 5 3 3 8 8 5 2 4 4 5 7 7 6 7 7 7 7 8 9 8 8
4 3 5 8 9 9 10 11 12 10 6 2 1 2 1 2 2 3 2 1 1 1 1 1 2 1 1 2 3 5 0 1 0 4 11 8 2 0 0 1 3 1 2 1 2 1 2 1 4 4 5 6 5 3 1 1 2 1 1 2 2 1 3 1 3 1 2 4 5 6 10 7 3 4 5 5 5 6 6 5 5 6 6 6 7 7 7 8
4 3 5 9 10 10 9 10 9 7 4 3 2 2 2 3 5 4 2 1 2 1 1 0 1 0 1 1 2 4 0 0 0 4 12 8 1 1 0 2 2 2 1 2 2 2 1 2 5 5 5 5 3 2 2 1 2 2 1 2 3 1 2 2 2 2 2 2 5 7 9 3 4 5 5 5 4 5 5 5 5 5 6 6 6 6 6 8
4 3 5 9 12 10 9 9 7 5 5 4 3 4 6 6 5 4 2 1 1 1 1 0 1 0 1 1 3 3 1 1 1 3 11 7 2 0 0 2 2 3 1 1 2 2 1 2 4 5 3 3 2 3 4 3 2 3 4 4 4 0 2 3 3 6 3 2 3 6 7 3 5 5 4 4 3 4 4 4 6 5 5 5 5 6 7 7
5 3 6 10 12 10 10 7 4 5 5 5 6 7 7 5 4 3 2 0 1 2 1 1 1 1 2 2 5 2 2 1 0 2 7 6 1 1 1 1 1 2 2 1 1 1 2 2 3 5 3 3 3 3 4 4 2 2 5 4 2 1 1 3 5 7 4 2 1 3 6 3 6 7 5 5 5 4 3 3 5 4 4 4 5 6 6 6
5 3 5 10 12 11 9 5 5 7 6 6 8 8 6 4 3 3 2 1 1 1 1 1 1 1 1 3 6 1 3 1 1 2 4 4 1 1 2 1 1 1 3 2 1 0 2 3 2 3 4 4 3 4 4 5 3 2 1 1 2 1 1 3 4 4 4 3 0 0 5 4 4 8 8 8 6 5 4 3 4 3 3 3 4 5 5 6
5 3 5 9 12 11 6 3 7 7 2 5 9 7 5 3 2 2 1 1 1 0 0 0 1 1 1 2 4 1 2 1 1 1 3 3 1 1 1 2 1 1 2 2 1 1 4 5 4 3 4 4 4 4 4 7 4 1 1 1 2 1 2 2 3 3 3 6 2 5 5 5 6 5 9 10 8 7 6 4 4 3 3 3 4 4 4 5
4 3 4 8 12 11 4 2 8 6 1 6 9 6 4 2 1 1 1 1 0 1 1 1 1 2 2 0 2 1 1 2 1 0 2 3 2 0 2 1 2 2 2 3 2 1 3 6 8 6 4 5 3 1 3 8 4 1 3 2 2 1 2 1 3 4 2 4 5 6 7 5 5 3 7 8 8 8 9 7 6 5 4 4 4 4 4 4
4 3 4 8 10 9 4 3 7 6 3 7 9 6 4 3 3 1 0 1 0 1 1 1 1 1 2 1 1 2 1 1 1 2 2 2 3 2 1 1 3 4 3 2 2 1 1 2 4 5 4 3 2 4 1 4 2 3 5 3 3 2 1 1 2 2 1 4 6 6 9 6 5 5 6 5 7 10 10 8 7 6 5 5 5 4 4 3
4 2 4 8 9 6 4 3 4 6 6 7 8 6 4 3 2 1 0 1 0 1 0 0 1 2 2 1 0 2 0 0 1 3 1 1 2 3 1 0 1 3 2 1 0 1 1 1 1 3 2 0 4 4 3 2 2 4 4 2 2 3 2 1 1 1 2 5 3 4 6 4 4 5 9 7 6 9 12 9 8 8 7 6 5 5 4 3
5 1 5 7 7 6 3 3 4 6 7 8 8 4 2 1 1 1 1 1 0 1 0 1 1 2 3 0 1 1 0 1 2 2 1 1 0 2 2 2 2 2 2 2 2 1 2 3 2 1 1 2 4 3 3 3 2 3 2 2 3 2 2 2 2 2 4 4 1 3 1 4 5 5 6 5 2 9 13 12 13 12 10 8 6 5 5 3
6 3 4 5 6 6 3 4 6 7 8 9 7 2 1 0 0 2 1 2 0 1 0 1 1 1 2 0 1 1 1 1 2 2 1 0 1 2 2 2 1 2 3 1 1 1 3 3 2 2 1 3 4 3 3 2 2 3 2 1 4 4 2 3 2 3 4 2 3 2 0 5 9 7 3 4 5 8 9 10 14 14 11 10 7 6 5 4
6 5 2 4 5 4 4 6 7 7 9 9 4 1 1 0 2 1 1 2 1 2 1 0 1 1 0 1 2 1 1 1 1 1 0 0 2 2 1 0 1 2 2 0 0 1 2 1 3 4 2 3 6 4 2 2 4 4 3 2 3 4 4 6 5 4 5 0 3 2 1 4 8 5 3 3 7 8 7 9 11 12 11 9 8 7 5 5
6 5 3 4 4 4 5 6 7 8 8 5 1 1 2 1 1 1 1 2 1 1 1 1 1 1 2 2 0 1 2 1 1 0 1 1 2 2 2 2 3 1 0 1 1 1 3 3 3 5 2 4 7 3 2 1 4 4 0 1 3 3 4 6 5 5 7 3 1 2 1 5 5 0 2 2 6 7 7 9 8 8 8 7 7 6 6 6
6 6 5 6 5 4 5 6 8 8 6 2 1 1 1 2 1 1 1 1 0 0 1 1 1 2 2 1 0 0 2 1 1 1 2 2 2 2 1 3 5 3 2 2 2 1 3 4 2 2 1 3 5 0 2 0 2 2 1 1 2 2 3 3 2 2 4 5 3 4 4 5 2 2 3 3 5 7 7 8 9 8 8 7 6 6 6 6
4 4 6 8 7 4 5 7 8 5 2 1 1 1 2 2 0 1 1 1 1 0 0 1 1 2 2 1 1 1 1 1 1 1 2 2 3 3 1 1 5 6 2 2 2 2 2 2 3 2 1 2 0 1 0 2 1 2 2 2 1 2 2 2 1 1 1 5 4 3 5 4 1 2 5 6 6 8 9 9 10 10 9 8 7 7 6 6
3 4 5 8 8 4 5 6 6 3 1 1 1 1 1 1 0 1 1 1 0 0 1 1 1 1 2 1 0 1 1 1 1 1 1 2 2 4 3 1 2 4 2 1 2 1 2 2 2 1 1 3 1 1 1 2 1 2 2 1 2 0 1 1 3 1 2 7 5 2 6 4 2 2 4 8 9 11 12 11 11 11 11 10 8 7 6 6
2 3 4 7 7 4 4 4 3 2 2 1 1 2 1 0 0 0 1 1 1 0 1 2 1 0 1 1 1 1 1 1 1 1 2 2 2 3 4 2 1 0 1 1 2 0 2 3 0 1 1 3 1 2 2 1 1 1 1 1 1 2 2 2 2 3 3 6 5 3 5 5 6 4 5 10 14 15 15 13 13 14 13 10 9 8 7 6
1 2 2 5 5 3 3 3 2 2 2 1 2 1 1 1 0 1 1 1 1 1 2 2 1 1 1 1 1 1 2 2 1 1 2 2 1 2 2 1 1 2 2 1 1 0 0 3 1 1 1 1 2 4 4 3 3 0 1 1 0 2 3 1 1 2 3 6 6 4 6 5 6 6 8 13 15 16 16 15 15 16 14 11 8 8 7 6
1 1 0 3 3 2 2 2 2 2 1 1 1 1 0 1 1 1 1 1 1 1 1 1 1 1 2 2 1 1 1 2 2 2 2 1 1 1 3 2 3 2 1 1 1 1 2 1 2 1 1 2 3 4 4 3 4 4 4 4 3 1 1 2 2 1 2 6 6 4 8 8 2 4 7 10 11 14 17 16 15 14 13 11 9 8 7 6
1 0 1 2 2 2 2 2 2 1 0 1 1 1 1 0 1 2 0 1 1 0 0 1 2 2 2 1 2 2 2 2 3 2 2 3 3 0 3 3 1 4 1 1 1 1 2 2 3 1 3 5 3 1 1 2 1 3 5 5 5 5 3 3 5 2 1 5 4 3 10 8 1 2 4 5 5 11 15 15 13 12 13 11 9 8 7 6
1 1 1 2 1 2 2 2 2 0 1 1 1 1 1 0 1 2 2 1 2 1 1 1 2 2 2 2 1 1 2 2 2 2 3 3 2 1 2 2 1 1 1 1 0 1 0 1 3 5 6 3 1 4 2 2 1 1 2 2 3 4 4 6 6 2 2 2 1 1 8 6 2 2 2 2 2 6 11 12 11 10 11 10 8 8 7 6
1 1 1 3 1 2 1 1 1 0 1 0 1 0 1 1 1 2 2 3 3 2 1 2 3 3 2 1 1 2 3 3 4 3 2 2 1 1 1 2 1 2 1 0 1 1 1 1 3 7 6 1 4 3 2 1 0 2 2 2 3 3 2 3 3 1 1 3 2 3 8 6 1 2 1 1 1 3 6 8 9 9 8 8 8 7 6 7
1 0 1 4 3 2 1 1 1 1 1 0 1 1 1 2 3 2 3 4 3 3 2 2 2 2 1 1 2 2 2 3 3 2 1 1 1 2 2 2 2 2 1 0 1 2 2 2 1 5 7 3 0 1 1 1 2 4 3 3 4 2 3 1 1 0 3 6 9 8 10 8 1 3 1 2 4 4 5 5 6 7 7 6 6 5 6 7
0 0 0 4 4 3 1 0 1 1 1 0 1 1 1 2 2 1 2 2 2 2 2 1 0 1 1 1 1 2 3 3 2 1 1 1 1 1 2 2 2 1 1 1 1 1 2 2 2 4 6 6 6 5 2 0 1 2 2 3 4 4 5 2 2 3 5 7 9 9 10 10 3 2 3 3 3 5 6 6 6 5 5 5 4 5 6 7
0 0 0 2 3 3 1 1 1 1 1 1 1 1 1 2 1 0 2 2 2 2 2 0 1 1 2 2 3 3 4 4 2 2 2 3 2 1 2 2 1 1 1 1 1 0 0 1 4 8 9 9 9 5 2 2 4 5 2 4 5 5 6 2 1 5 6 3 5 10 13 15 13 8 6 7 7 8 8 8 8 6 5 4 5 6 7 7
0 0 0 0 0 1 1 0 0 0 1 1 1 1 1 3 1 1 2 2 0 1 2 1 3 3 3 3 3 3 2 2 3 2 3 4 2 0 1 1 1 2 3 2 1 1 0 3 4 8 14 12 8 8 4 3 10 12 6 2 6 6 5 6 8 11 6 0 8 17 15 14 17 14 5 4 8 9 8 8 7 5 4 4 5 7 9 9
1 1 1 1 1 0 0 0 0 1 0 1 1 1 2 2 2 1 2 1 0 2 3 2 4 7 6 4 2 2 1 2 3 3 3 2 1 0 1 1 2 2 2 0 0 0 2 4 1 4 12 10 5 9 11 8 11 11 6 6 9 8 8 11 17 18 9 5 13 18 17 17 17 12 7 5 1 3 3 3 2 1 4 6 7 9 9 10
1 1 1 1 1 0 1 1 1 1 1 1 1 2 3 3 3 2 1 2 1 2 3 3 5 7 7 5 3 3 3 3 3 4 2 1 1 1 1 1 2 2 1 2 1 0 2 3 1 2 9 10 5 8 11 9 9 7 4 9 13 12 13 15 18 19 13 13 18 19 21 22 16 10 10 8 7 6 5 4 3 4 7 8 9 10 10 10
1 0 1 1 1 1 1 1 1 1 1 1 2 2 2 3 4 2 1 4 3 2 4 5 4 3 4 5 6 6 5 3 4 4 2 2 2 2 2 1 3 2 1 2 1 1 2 1 2 2 7 9 2 2 5 5 6 6 8 14 16 15 14 14 15 15 12 13 17 18 17 15 9 12 10 9 9 8 8 8 7 7 9 10 11 11 11 11
2 1 1 0 0 1 0 0 1 0 1 2 2 2 2 3 4 1 2 6 4 2 6 6 2 2 2 4 7 10 8 4 6 6 3 3 4 2 1 0 3 4 2 1 1 2 2 2 1 2 6 7 1 2 7 7 7 9 12 15 14 10 9 9 8 7 6 9 11 10 7 6 8 11 9 10 11 10 10 11 10 11 11 11 12 12 11 11
1 1 1 0 1 0 0 0 1 1 2 1 2 2 2 2 2 0 2 2 1 0 4 4 2 1 1 4 7 9 6 5 7 6 3 3 3 1 1 2 3 3 4 3 1 1 2 2 0 1 4 6 2 5 11 12 9 6 3 5 7 4 4 7 4 3 3 7 7 5 4 5 9 11 11 12 13 12 11 12 12 12 12 12 12 13 13 11
Wind_Direction
147 158 177 181 167 200 211 214 222 225 225 216 218 237 248 256 262 260 261 261 262 260 255 251 240 225 186 176 164 158 128 94 69 58 58 24 353 343 339 338 336 338 342 344 357 1 231 49 85 129 152 135 15 83 106 33 19 239 216 242 251 218 285 171 228 339 330 326 332 3 13 324 329 16 12 270 225 239 263 246 231 232 237 237 209 167 320 275
126 132 146 159 155 172 196 205 206 198 208 218 238 258 262 261 263 262 264 264 261 258 252 244 234 213 191 179 170 165 152 117 64 55 38 3 350 344 342 343 341 341 345 344 2 7 313 34 60 166 182 157 23 130 171 23 312 245 177 259 262 126 50 44 317 324 293 313 325 335 16 324 326 354 359 310 289 303 286 267 223 240 235 206 221 238 271 269
113 121 127 133 148 150 155 169 179 193 232 248 259 262 262 263 264 266 266 265 260 255 246 231 219 199 189 176 174 172 163 178 62 41 9 354 349 349 349 350 349 345 349 349 1 2 335 47 75 202 197 154 55 150 174 39 310 203 232 259 57 61 183 127 273 295 315 318 315 327 16 313 333 352 336 314 305 293 280 280 264 280 300 141 191 217 252 256
115 113 105 112 132 123 104 102 247 264 259 257 262 259 261 263 262 264 262 260 251 242 229 213 198 185 182 175 174 167 167 216 83 11 357 358 350 353 355 353 353 352 359 359 4 16 60 103 78 160 204 155 87 154 167 41 338 169 244 291 66 47 228 99 343 329 336 315 303 317 325 302 349 344 290 300 297 288 284 312 316 305 325 360 63 102 226 247
124 112 94 104 115 107 107 219 269 271 263 258 259 256 258 260 259 260 256 248 239 222 205 192 181 176 173 171 171 164 200 234 76 12 2 2 351 356 358 356 358 3 4 352 4 35 84 123 118 125 188 152 142 177 137 49 338 183 168 1 58 254 284 52 43 9 343 301 284 310 324 320 324 275 257 265 274 290 344 45 352 321 340 348 2 2 244 234
124 110 89 98 102 106 171 246 263 264 260 257 255 256 256 255 252 246 240 231 224 203 184 173 168 169 166 164 167 170 229 257 46 6 6 2 353 1 359 358 3 9 353 336 2 66 89 176 194 171 149 131 158 153 90 62 300 258 128 63 75 286 335 27 21 8 327 294 317 341 325 314 302 289 284 257 260 277 345 37 341 326 347 336 319 281 251 239
123 110 84 90 114 248 267 265 273 270 261 256 251 251 244 237 233 223 213 208 199 177 165 162 163 162 159 158 154 153 234 69 24 351 2 0 357 6 3 8 13 18 9 355 39 168 135 201 174 163 143 126 153 110 71 72 244 269 160 108 121 351 352 1 338 313 312 310 345 327 281 292 301 310 348 277 268 281 331 4 343 320 324 312 282 259 256 255
115 107 84 62 342 299 313 301 294 277 260 260 249 239 229 220 212 198 187 178 166 160 158 160 160 158 159 158 148 132 98 84 360 344 355 359 3 12 12 27 38 52 57 52 40 188 167 111 141 188 172 104 159 119 76 200 146 259 313 116 124 94 11 348 317 295 340 334 315 261 272 293 294 318 304 279 288 333 337 340 349 326 312 291 281 277 267 265
113 94 64 345 323 312 313 305 284 269 264 268 251 238 222 205 191 174 159 152 148 151 155 158 158 159 161 152 159 167 111 80 346 342 351 358 5 31 31 55 67 68 66 53 37 200 203 191 151 213 150 94 157 119 14 241 130 60 76 116 134 120 21 348 307 358 352 28 348 306 296 297 283 333 278 264 327 357 314 298 9 339 313 318 318 303 287 281
151 183 258 286 294 291 295 268 250 258 264 257 240 227 196 177 166 149 140 142 145 151 154 157 156 157 158 144 181 189 104 62 345 339 345 354 8 124 59 80 76 68 69 53 39 41 50 157 138 178 120 101 146 104 322 272 55 76 95 106 99 106 27 358 52 17 353 172 25 338 309 309 27 270 261 123 30 335 319 317 2 335 314 350 331 307 299 292
213 228 243 256 263 274 273 214 215 217 208 201 187 164 151 148 142 136 137 140 143 148 148 151 152 151 147 147 197 138 85 24 347 341 341 346 70 152 100 92 76 69 69 57 52 50 60 134 137 147 112 128 144 98 37 31 71 85 125 180 115 132 138 15 2 9 356 181 21 340 303 313 90 222 253 62 359 332 333 318 317 324 317 321 281 291 288 282
225 233 243 245 249 259 231 189 193 185 170 154 141 131 129 130 132 132 134 137 139 143 142 143 142 135 124 111 90 75 72 12 349 344 346 352 152 128 103 106 73 63 60 67 71 72 109 145 146 104 39 167 159 105 105 110 20 108 328 242 240 212 179 21 2 351 348 342 358 329 279 264 167 221 318 37 343 335 322 312 324 329 326 326 284 270 262 261
226 235 234 235 245 237 190 187 181 167 156 146 134 128 128 125 125 125 125 128 132 135 137 138 132 128 129 104 89 75 65 14 356 350 8 85 153 104 82 123 86 68 70 90 105 109 125 145 136 86 54 163 129 105 137 113 307 184 24 319 292 241 192 29 2 326 316 57 355 326 275 102 157 207 39 41 351 334 325 331 347 344 345 341 330 307 279 265
207 221 219 224 230 204 188 185 169 156 146 141 134 129 125 118 116 115 118 124 131 139 142 145 137 124 107 90 134 92 23 313 356 7 33 55 146 133 59 100 102 87 87 91 98 105 117 119 105 104 69 15 90 141 154 107 53 226 5 272 277 282 126 69 17 339 324 134 356 326 275 31 44 73 70 28 348 337 330 347 360 359 360 355 360 346 329 327
195 194 202 208 202 185 176 171 158 147 138 136 134 131 124 117 115 115 123 127 132 144 147 153 141 130 122 93 172 190 359 319 1 8 16 29 68 168 195 128 115 100 98 95 93 93 100 99 86 98 69 17 174 177 174 114 87 35 307 175 163 320 118 97 53 17 21 330 330 322 281 332 23 77 103 360 346 339 334 359 11 8 9 12 20 17 17 32
195 190 188 187 177 163 158 160 150 140 134 135 137 137 131 120 117 119 131 139 142 143 139 159 141 148 165 97 156 187 20 4 360 359 358 17 31 57 144 130 114 104 96 94 97 83 59 63 66 19 58 178 205 217 217 207 151 141 309 340 89 304 310 77 114 59 9 305 303 302 293 316 6 16 13 10 355 344 356 16 18 13 18 23 26 34 36 43
184 183 174 172 167 155 152 150 143 135 132 135 140 143 137 121 115 115 119 128 129 118 96 109 126 142 141 88 145 147 1 330 344 353 352 12 25 54 140 133 103 111 100 83 89 58 26 46 141 214 67 103 135 242 230 190 121 133 319 314 192 272 297 317 141 105 326 284 282 259 245 277 310 336 356 18 4 1 27 26 24 24 29 34 37 46 46 48
163 166 161 161 159 152 150 147 139 135 135 137 141 141 134 121 112 115 127 133 127 118 95 81 107 167 114 79 174 330 316 307 339 357 356 7 31 54 98 123 116 132 129 72 48 23 4 25 219 181 108 90 100 239 254 53 49 57 304 305 323 239 241 286 310 46 351 307 270 256 238 281 308 331 9 27 12 23 42 32 34 40 41 46 48 52 51 52
140 141 143 148 151 149 152 151 138 135 138 136 136 134 129 118 101 94 104 117 135 212 188 78 71 221 103 57 313 322 307 293 348 7 9 7 22 59 63 79 108 124 192 223 55 32 337 271 195 187 147 97 50 347 15 58 71 124 124 318 316 288 259 281 343 58 356 311 258 241 274 299 311 331 17 24 19 34 46 47 48 47 48 51 52 53 54 54
123 128 134 139 146 149 153 153 140 138 139 135 136 136 135 134 111 74 62 55 65 340 29 96 98 311 70 79 321 330 311 201 17 18 15 6 3 105 46 45 108 100 47 255 33 43 291 242 177 89 106 123 108 46 63 79 88 124 147 226 243 281 283 277 40 60 352 320 260 230 291 293 303 333 29 17 25 40 37 49 51 49 53 51 56 58 60 59
120 134 140 139 144 149 154 157 150 145 141 137 150 170 189 194 218 118 84 49 69 299 355 106 207 289 292 271 335 345 6 175 89 27 17 10 12 183 5 35 180 165 54 282 297 314 245 239 123 97 94 108 122 127 111 110 105 139 176 276 250 248 267 354 68 42 8 343 290 298 304 297 310 18 59 29 41 44 27 40 46 49 58 55 59 60 61 66
113 139 147 145 146 148 154 162 162 160 159 162 198 226 219 222 203 143 132 131 143 273 310 145 219 282 291 239 342 351 250 183 124 29 12 6 17 246 23 123 191 178 67 223 233 200 212 186 123 114 109 106 114 149 181 144 152 193 192 275 273 250 279 285 96 79 5 326 300 328 317 312 50 81 74 48 58 57 34 41 39 43 63 61 55 55 60 68
92 129 148 153 152 149 152 162 168 174 194 224 239 216 168 150 162 149 116 123 128 208 233 166 215 330 60 171 4 353 184 158 39 28 5 356 57 22 273 133 137 141 132 210 223 212 201 127 117 124 141 136 129 159 195 189 188 222 222 267 286 36 300 261 90 348 307 278 295 310 302 298 105 109 87 66 74 80 64 60 51 47 62 63 57 50 52 60
72 121 150 157 158 153 151 156 166 186 209 226 213 171 145 130 144 150 117 76 146 171 198 195 231 235 65 62 360 351 107 76 281 8 359 357 116 232 308 106 129 152 146 245 226 219 69 61 110 134 164 178 160 169 196 227 240 221 215 246 276 38 261 263 351 326 297 177 267 286 279 234 169 169 123 110 122 100 89 84 74 63 63 71 75 64 54 56
64 122 153 160 162 156 154 152 150 172 179 168 155 148 141 137 154 167 144 321 219 156 161 181 181 126 98 19 358 7 139 102 297 327 350 3 83 200 122 95 247 168 142 158 194 200 81 77 155 154 171 197 193 210 210 228 282 246 213 228 270 354 268 279 332 324 292 206 196 312 298 241 177 190 167 152 155 123 100 93 85 69 68 78 78 72 65 64
58 103 151 163 166 160 157 154 142 143 137 144 151 142 135 134 146 164 154 320 227 143 144 178 181 75 107 351 0 44 179 121 14 329 353 17 22 226 150 126 324 116 152 158 142 249 103 124 190 175 180 186 215 252 207 197 262 299 204 160 133 146 262 295 326 316 288 288 138 274 287 268 206 204 180 164 165 148 130 108 102 88 77 79 79 79 75 72
54 92 147 162 168 167 164 182 170 154 123 163 160 144 141 140 136 167 238 292 227 127 19 107 323 357 56 347 346 283 212 2 349 323 16 9 5 257 210 166 165 107 153 190 191 131 127 149 188 184 184 194 221 255 186 182 232 317 97 112 132 175 274 300 301 265 284 312 283 191 226 260 254 213 161 159 168 162 163 150 135 133 111 102 97 90 81 75
50 105 150 163 171 179 194 206 181 182 229 174 170 167 171 190 259 236 270 280 313 66 36 52 68 30 43 328 344 24 333 349 291 163 11 352 17 235 258 210 174 120 136 234 252 106 137 176 189 175 182 214 218 356 167 192 229 37 109 110 99 104 300 274 260 263 282 308 276 186 181 241 250 170 135 160 185 190 187 174 164 163 146 132 120 109 99 88
48 115 155 169 174 185 204 190 183 195 191 174 182 191 199 255 273 238 138 259 303 87 64 44 129 25 6 251 43 57 25 355 356 337 337 340 33 37 283 94 113 110 108 269 283 62 152 201 202 186 197 223 127 50 15 212 220 108 127 114 102 118 103 164 248 272 195 253 263 183 174 233 252 175 156 183 218 209 191 177 174 172 163 155 141 132 129 117
37 128 165 174 177 181 179 165 182 189 178 179 188 193 219 266 261 157 20 268 297 98 116 358 243 318 355 257 261 49 297 328 352 329 333 169 37 49 66 339 133 125 111 291 263 93 90 59 277 223 225 89 98 77 31 48 99 134 152 174 184 169 141 162 212 223 224 244 247 154 174 241 275 199 177 189 226 191 169 169 178 176 175 170 160 156 152 140
30 106 171 181 185 187 179 156 171 178 178 178 175 182 244 304 94 161 244 263 103 83 297 56 318 345 35 107 262 35 29 326 340 322 108 143 73 85 137 218 195 177 204 208 188 128 136 185 210 174 124 112 123 108 65 73 119 170 217 282 274 237 174 185 171 165 245 253 107 93 184 236 249 233 185 169 154 158 162 171 175 175 175 170 167 168 160 152
33 64 168 186 189 194 194 164 164 166 169 165 156 165 254 357 256 224 270 305 314 358 336 69 4 13 58 116 243 6 318 278 7 355 80 121 226 178 202 227 197 231 246 207 178 175 184 195 152 112 159 196 179 153 128 146 179 220 237 252 285 289 263 254 241 208 245 261 77 69 205 232 244 252 228 177 159 163 165 165 167 168 168 169 169 168 165 168
44 49 119 162 173 183 164 158 163 159 157 156 151 83 84 129 244 201 308 306 346 25 19 59 359 337 332 254 211 138 232 224 54 31 124 169 238 213 201 297 276 262 262 235 285 239 223 157 142 166 171 197 205 199 195 187 177 198 210 213 265 292 297 288 286 275 274 271 91 68 83 247 254 264 274 199 159 158 153 148 157 161 163 167 166 169 174 178
59 53 79 121 136 147 143 154 160 154 156 158 168 93 94 243 240 129 290 287 328 10 29 47 344 261 227 254 292 186 225 209 67 314 214 176 227 234 196 195 216 245 121 206 263 253 256 259 176 176 134 164 200 231 355 79 157 180 124 310 259 261 265 282 298 295 304 320 156 144 181 237 241 68 21 82 122 135 144 142 150 159 163 167 167 176 187 188
78 69 72 82 89 114 134 151 153 152 163 173 80 104 158 237 240 191 259 315 10 259 106 101 300 268 233 224 19 263 238 175 74 271 220 194 225 236 195 186 196 197 163 200 207 121 255 274 102 90 44 171 192 155 28 89 166 151 69 245 245 261 251 270 315 303 315 313 246 189 219 242 231 120 115 109 125 142 150 154 164 174 175 177 184 189 193 194
86 68 59 58 55 77 125 144 146 150 179 172 101 142 207 244 236 190 222 35 47 214 220 214 220 246 258 237 129 113 222 261 327 284 211 208 240 225 212 178 185 202 205 204 205 155 244 264 97 100 138 147 150 46 38 291 294 143 180 211 172 4 302 258 270 96 149 275 264 207 243 249 206 195 158 148 164 167 171 179 182 186 186 189 197 193 193 195
78 65 51 39 35 64 124 135 138 134 115 126 152 215 231 257 85 191 162 64 349 314 295 270 223 235 270 278 183 116 218 247 265 276 218 204 230 195 190 186 171 213 253 308 246 214 261 253 120 133 149 99 23 305 217 316 328 190 201 167 109 20 329 277 269 283 223 261 268 237 263 252 209 245 158 164 193 192 189 193 191 194 194 195 199 191 191 197
85 89 59 27 25 67 121 124 124 109 86 118 236 266 245 190 28 34 122 119 271 214 228 255 274 357 290 281 291 114 206 220 149 219 232 210 217 166 162 163 104 49 342 315 268 39 283 264 150 60 83 104 118 243 223 148 75 304 284 16 358 242 226 143 251 277 253 264 267 252 280 254 206 217 174 187 206 200 194 195 198 201 197 196 196 188 191 198
170 129 54 15 23 76 117 118 98 80 94 172 236 264 242 233 89 70 50 351 248 206 234 260 312 349 208 214 281 157 208 226 135 208 224 205 224 146 129 161 109 49 3 331 273 61 57 266 267 70 25 89 154 215 225 166 129 34 245 212 346 284 270 223 231 281 255 267 274 286 300 269 204 194 187 197 206 197 190 194 201 203 197 194 193 186 193 198
162 139 16 3 24 85 109 98 82 74 112 177 230 212 235 266 147 112 331 301 223 206 259 239 189 255 232 212 251 226 220 236 195 223 232 202 243 107 58 28 116 122 357 2 309 245 135 229 261 110 110 238 200 199 224 190 160 176 195 194 180 173 282 277 252 228 243 267 270 285 286 272 179 159 197 205 204 190 188 195 200 198 191 191 192 188 196 204
143 89 320 350 12 129 114 74 68 59 144 167 236 216 175 184 151 140 187 290 278 314 314 244 219 238 245 241 244 192 205 233 204 233 242 204 230 116 50 4 111 136 158 153 190 244 171 214 257 228 215 231 213 110 353 315 173 186 199 197 189 173 163 242 251 210 175 259 257 263 274 269 111 105 220 219 207 191 191 194 190 186 187 188 193 195 201 215
126 55 345 348 315 175 124 63 56 14 226 206 291 218 157 144 169 156 143 181 249 216 187 265 234 224 235 244 256 191 223 242 191 218 242 217 243 355 48 342 322 141 142 131 160 295 314 245 262 259 249 234 87 70 47 349 2 236 245 213 180 175 191 231 248 231 184 237 285 276 270 272 81 84 277 283 250 193 184 185 177 175 184 188 196 205 211 226
99 75 51 24 26 168 118 72 116 271 231 195 359 229 174 185 183 165 171 193 209 184 192 244 213 214 240 235 232 207 213 225 199 197 239 243 256 20 17 316 268 187 148 120 164 154 185 226 257 274 271 169 103 104 112 59 98 220 227 177 182 189 205 237 251 335 246 221 208 237 256 270 23 66 359 352 187 161 158 169 170 171 182 191 200 214 226 238
32 198 50 14 23 158 181 182 172 231 232 73 330 207 191 221 201 189 205 207 197 176 195 231 216 209 211 176 232 221 204 229 223 204 248 259 175 84 33 312 240 182 147 183 154 150 205 212 194 291 297 293 192 187 163 145 194 230 226 169 188 165 76 59 185 174 257 234 229 244 261 270 318 68 43 110 128 152 153 163 177 177 185 197 207 226 243 252
61 144 271 356 29 85 144 256 142 181 192 273 278 240 226 230 206 219 245 217 192 194 208 226 163 175 143 152 220 237 234 237 239 353 10 280 267 109 70 326 282 196 65 359 343 232 233 216 180 250 283 282 282 298 321 314 186 199 171 157 200 192 170 201 248 232 241 232 226 239 258 265 277 107 180 185 164 190 192 192 197 193 197 213 233 247 255 260
182 100 286 337 30 60 65 353 19 157 164 211 256 261 230 223 202 34 232 216 187 195 239 216 146 171 165 185 235 243 233 221 219 330 304 244 258 131 85 350 334 30 356 322 302 229 229 243 220 233 246 251 269 294 32 26 293 266 215 169 201 211 203 211 294 244 238 234 241 246 251 261 269 260 215 194 198 211 211 206 203 206 219 233 251 259 260 263
183 141 57 314 21 57 82 82 325 137 145 230 230 181 226 244 277 126 188 217 210 206 248 212 179 206 187 176 227 236 219 198 199 255 259 242 254 127 102 28 41 355 326 295 258 112 190 251 219 226 244 252 286 311 318 306 281 278 285 225 205 203 190 192 222 237 237 350 266 259 257 263 272 277 269 185 207 223 222 213 206 213 242 258 267 267 265 266
35 125 89 359 283 222 111 88 136 114 130 261 240 197 232 247 259 232 193 186 8 220 232 219 208 224 214 177 195 227 206 198 206 226 244 251 268 245 163 124 92 341 317 182 325 121 220 268 204 208 257 265 286 288 280 272 268 273 294 280 246 216 189 204 230 241 235 229 257 269 278 280 283 304 358 40 304 266 239 216 208 273 286 281 278 278 279 281
61 107 83 359 335 150 30 20 94 145 178 218 237 217 224 229 228 244 168 146 215 210 208 245 238 220 212 195 194 223 211 206 250 253 211 188 233 239 261 184 108 350 295 150 105 235 203 256 112 155 282 285 246 247 265 269 274 287 281 259 254 237 216 218 237 249 249 248 260 276 282 283 297 347 23 28 23 28 36 26 6 323 299 293 291 292 294 297
83 184 102 29 34 87 30 29 109 154 165 170 248 221 214 225 227 264 185 192 223 184 175 236 257 199 194 200 206 230 226 220 283 279 186 182 235 212 239 231 121 90 265 152 127 201 205 250 100 119 290 293 255 227 269 255 261 285 267 250 248 245 240 239 247 258 262 259 264 275 279 285 333 22 31 30 28 26 16 1 340 315 305 305 306 305 306 309
80 76 115 183 250 109 49 49 104 248 209 185 221 206 200 225 219 261 240 212 221 191 182 209 238 115 148 195 217 241 250 254 278 276 220 224 259 232 208 198 124 139 169 149 125 167 191 245 71 94 285 290 51 26 305 285 258 255 258 259 255 246 245 248 244 245 255 264 275 290 299 314 0 14 20 24 16 4 358 347 329 317 317 316 314 315 318 321
97 72 95 185 280 130 116 65 113 253 261 201 202 206 224 235 191 236 286 243 217 222 198 194 166 129 212 210 223 246 268 275 278 287 274 253 282 328 80 75 95 134 160 163 168 163 184 225 236 83 280 282 13 358 316 308 296 272 264 304 310 309 279 278 298 2 330 300 301 320 356 0 1 4 6 5 359 353 348 334 319 316 319 321 322 323 325 328